National Weather Service Raw Text Product

Displaying AFOS PIL: RWRLUB Received: 2018-11-18 17:00 UTC


860 
ASUS44 KLUB 181710
RWRLUB
WEST TEXAS WEATHER ROUNDUP
NATIONAL WEATHER SERVICE LUBBOCK TX
1100 AM CST SUN NOV 18 2018

NOTE: "FAIR" INDICATES FEW OR NO CLOUDS BELOW 12,000 FEET WITH NO
SIGNIFICANT WEATHER AND/OR OBSTRUCTIONS TO VISIBILITY.

TXZ004-006>008-010-012-014-016-OKZ002-181800-
TEXAS PANHANDLE/OKLAHOMA PANHANDLE
  
CITY           SKY/WX    TMP DP  RH WIND       PRES   REMARKS
AMARILLO       CLOUDY    28  25  88 NW9       30.31S WCI  19          
BORGER         CLOUDY    30  23  75 N9        30.33F WCI  22          
CANADIAN       CLOUDY    32  27  82 N13       30.34F WCI  22          
DALHART        CLOUDY    31  26  82 VRB3      30.29F                  
DUMAS          CLOUDY    27  24  89 N3        30.31                   
GUYMON         CLOUDY    29  24  82 N7        30.32F WCI  22          
HEREFORD       CLOUDY    31  29  94 NW7       30.31  FOG     WCI  24  
PAMPA          CLOUDY    29  27  92 NW9       30.32  WCI  20          
PERRYTON       CLOUDY    29  27  92 N8        30.32  WCI  21          
$$

TXZ026-029-035-045-048-181800-
SOUTHERN PANHANDLE/SOUTH PLAINS/ROLLING PLAINS
  
CITY           SKY/WX    TMP DP  RH WIND       PRES   REMARKS
CHILDRESS      CLOUDY    33  25  72 N13       30.36F WCI  24          
SEMINOLE       CLOUDY    33  27  77 N5        30.38  WCI  29          
LUBBOCK        CLOUDY    34  27  75 N7        30.31F WCI  28          
PLAINVIEW      CLOUDY    30  25  81 N7        30.30S WCI  23          
SNYDER         CLOUDY    33  27  77 N12       30.35  WCI  24          
$$

TXZ052-054-060>062-072-078-127-140-154-169-181800-
PERMIAN BASIN/CONCHO VALLEY/BIG COUNTRY/EDWARDS PLATEAU  
  
CITY           SKY/WX    TMP DP  RH WIND       PRES   REMARKS
ABILENE        CLOUDY    37  27  67 N15       30.35F WCI  28          
BIG SPRING     CLOUDY    36  28  71 N6        30.37  WCI  31          
BRADY          PTSUNNY   43  32  65 N14       30.32                   
BROWNWOOD      CLOUDY    41  32  70 N10G16    30.33F                  
JUNCTION       CLOUDY    44  37  76 N7        30.32F                  
MIDLAND        CLOUDY    38  30  73 MISG      30.34F                  
ODESSA         CLOUDY    36  28  73 NE6       30.34F WCI  31          
SAN ANGELO     CLOUDY    42  31  64 N13       30.33F                  
SONORA         CLOUDY    43  34  70 N12       30.34S                  
SWEETWATER     CLOUDY    35  28  77 N10       30.37  WCI  27          
WINK           CLOUDY    38  28  67 NE6       30.35F WCI  33          
$$

TXZ055-058-074-075-080-082-181800-
FAR WEST/SOUTHWEST MOUNTAINS/TRANS PECOS
  
CITY           SKY/WX    TMP DP  RH WIND       PRES   REMARKS
ALPINE         CLOUDY    33  32  96 NE3       30.34F                  
EL PASO        PTSUNNY   51  31  46 SW7       30.20R                  
FORT STOCKTON  CLOUDY    35  31  85 NW6       30.34F WCI  30          
MARFA            N/A     45  32  60 N6        30.26F                  
PECOS          CLOUDY    37  30  75 CALM      30.37F                  
PRESIDIO       FAIR      60  42  51 NE9       30.23F                  
$$

TXZ014-016-019-021>030-083-181800
TEXAS TECH WEST TEXAS MESONET/TEXAS PANHANDLE/NORTHERN SOUTH PLAINS
  
CITY           SKY/WX    TMP DP  RH WIND       PRES   REMARKS
ABERNATHY 5ENE   N/A     32  28  86 N7        30.34F WCI  25          
AMARILLO 9NNE    N/A     29  24  82 NW7       30.34S WCI  22          
AMARILLO 7SSE    N/A     28  26  91 N9        30.33F WCI  20          
AMHERST 1NE      N/A     31  27  83 NW5       30.32F WCI  27          
BOOTLEG 11WNW    N/A     26  25  96 E1        30.32F                  
CANADIAN 6E      N/A     29  25  82 N14       30.32F WCI  19          
CAPROCK CYN SP   N/A     33  26  76 N5        30.35F WCI  28          
CHILDRESS 2NNE   N/A     33  25  71 N13       30.37F WCI  24          
CLARENDON 2WSW   N/A     31  24  77 NW9       30.34S WCI  23          
CLAUDE 12SW      N/A     29  26  86 NW7       30.32S WCI  22          
DIMMITT 2NE      N/A     28  27  96 NW8       30.31S WCI  20          
FLOYDADA 2NNE    N/A     33  25  72 N7        30.31F WCI  26          
FRIONA 2NE       N/A     29  28  96 NE2       30.32F                  
GOODLETT 3W      N/A     33  24  68 NW10      30.37F WCI  25          
HART 3N          N/A     29  28  93 N7        30.32S WCI  22          
HEREFORD 2NW     N/A     28  27  96 N6        30.33F WCI  22          
MCLEAN 1E        N/A     29  24  81 NW12      30.31S WCI  19          
MEMPHIS 1NE      N/A     33  26  74 NW8       30.37F WCI  26          
MULESHOE 2SSW    N/A     32  27  83 NW3       30.32F                  
OLTON 6S         N/A     30  27  87 N7        30.32F WCI  24          
PALO DURO SP     N/A     29  24  81 N8        30.33F WCI  22          
PAMPA 2E         N/A     26  26  98 NW12      30.31S WCI  16          
PLAINVIEW 1S     N/A     31  26  83 NW8       30.32F WCI  23          
SILVERTON 7ESE   N/A     31  25  76 NW8       30.31F WCI  24          
TULIA 2ENE       N/A     30  25  80 NW9       30.33S WCI  22          
TURKEY 2WSW      N/A     33  24  70 NW10      30.35F WCI  24          
UMBARGER 3NNE    N/A     28  26  92 NW7       30.32F WCI  21          
$$

TXZ033>036-039>041-045>048-181800
TEXAS TECH WEST TEXAS MESONET/SOUTH PLAINS  
  
CITY           SKY/WX    TMP DP  RH WIND       PRES   REMARKS
AIKEN 3WSW       N/A     31  26  80 NW7       30.33F WCI  24          
ANDREWS 2NE      N/A     34  27  73 NE5       30.37S WCI  30          
ANTON 6SSW       N/A     32  29  86 N6        30.33F WCI  27          
BROWNFIELD 2S    N/A     33  26  73 NE7       30.33F WCI  27          
DENVR CTY 7WNW   N/A     31  25  79 N5        30.33F WCI  26          
GAIL 2ESE        N/A     35  26  68 N7        30.35F WCI  30          
LAMESA 2SE       N/A     33  27  77 NE5       30.35F WCI  29          
LUBBOCK 3WNW     N/A     34  28  78 N6        30.34F WCI  29          
MORTON 1ENE      N/A     33  25  72 E2        30.32F                  
ODONNELL 1N      N/A     34  26  71 NE6       30.34F WCI  29          
PLAINS 3N        N/A     32  26  77 N7        30.32F WCI  26          
RALLS 1SE        N/A     34  25  70 NW9       30.33F WCI  26          
REESE CENTER     N/A     32  27  81 N7        30.33F WCI  26          
SEAGRAVES 1SW    N/A     33  26  74 N9        30.34F WCI  26          
SEMINOLE 2NNE    N/A     34  26  72 N5        30.35R WCI  30          
SLATON 2NE       N/A     34  27  77 N9        30.34S WCI  26          
SNYDER 3E        N/A     36  28  72 N9        30.35F WCI  29          
SUNDOWN 8SW      N/A     33  26  74 N6        30.32F WCI  28          
TAHOKA 3NNE      N/A     34  27  75 N7        30.33F WCI  28          
WOLFFORTH 6SSW   N/A     33  28  80 N6        30.33F WCI  28          
$$

TXZ031-032-036>038-042>044-181800-
TEXAS TECH WEST TEXAS MESONET/ROLLING PLAINS 
  
CITY           SKY/WX    TMP DP  RH WIND       PRES   REMARKS
ASPERMONT 3NE    N/A     37  27  67 N9        30.37F WCI  30          
FLUVANNA 3WNW    N/A     33  26  73 N9        30.34F WCI  26          
GRAHAM 5SSW      N/A     34  27  76 N7        30.34F WCI  28          
GUTHRIE 10WSW    N/A     35  25  67 N8        30.36F WCI  29          
HASKELL 1NW      N/A     35  27  73 NW12      30.37F WCI  27          
JAYTON 1SSE      N/A     36  27  69 N7        30.36F WCI  30          
KNOX CITY 3NW    N/A     37  26  65 N12       30.39F WCI  29          
LK A HENRY 1NW   N/A     36  29  74 N9        30.36F WCI  29          
NORTHFIELD 1S    N/A     35  24  63 N8        30.36F WCI  29          
ODELL 4ENE       N/A     34  25  69 N10       30.39F WCI  26          
PADUCAH 10SW     N/A     35  26  71 N8        30.37F WCI  28          
POST 1NE         N/A     36  26  68 N5        30.35S WCI  32          
RRING SPRGS 3N   N/A     33  27  79 N8        30.34F WCI  26          
SEYMOUR 3NW      N/A     35  26  70 NW13      30.39F WCI  26          
SPUR 1W          N/A     36  26  66 N10       30.35F WCI  28          
WEINERT 2NNE     N/A     35  26  68 NW9       30.39F WCI  28          
WHITE RVR 6NE    N/A     36  26  65 NW8       30.34F WCI  30          
$$

TXZ052-054-060>062-072-078-127-140-154-169-181800-
TEXAS TECH WEST TEXAS MESONET/PERMIAN BASIN/
CONCHO VALLEY/BIG COUNTRY/EDWARDS PLATEAU
  
CITY           SKY/WX    TMP DP  RH WIND       PRES   REMARKS
COYANOSA 2N      N/A     38  29  69 N7        30.37F WCI  33          
JUNCTION 1SSW    N/A     43  36  75 N7        30.32F                  
MERTZON 3NNE     N/A     39  30  70 N9        30.35F WCI  33          
SAN ANGELO 7NW   N/A     40  28  63 N8        30.34F WCI  34          
STRLNG CT 4WSW   N/A     38  28  68 NW14      30.35F WCI  30          
ST LAWRNCE 5SW   N/A     37  29  71 N10       30.34F WCI  30          
SWEETWATR 11SW   N/A     34  28  80 N10       30.36F WCI  26          
WALL 1E          N/A     40  31  68 N13       30.35F WCI  33          
$$

TXZ055-058-074-075-080-082-181800-
TEXAS TECH WEST TEXAS MESONET/FAR WEST/SOUTHWEST MOUNTAINS/TRANS PECOS
  
CITY           SKY/WX    TMP DP  RH WIND       PRES   REMARKS
PRSMN GAP BBNP   N/A     49  37  65 NE17      30.26S                  
GUADLPE MTN NP   N/A     28  27  99 E7        30.28F WCI  20          
$$